Location: Newark
(33.6333°S, 78.8500°W)
Time: 03:05:39
(UTC+00:00)

Courier 1B - Pass Details

Date: 23 September 2019
Orbit: 962 x 1209 km, 28.3° (Epoch: 19 October)

Event Time Altitude Azimuth Distance (km) Brightness Sun altitude
Rises 22:31:21 0° 290° (WNW) 4,086 12.6 7.7°
Reaches altitude 10° 22:34:18 10° 294° (WNW) 3,104 11.8 7.1°
Maximum altitude 22:41:45 53° 8° (N) 1,374 8.4 5.5°
Drops below altitude 10° 22:48:49 10° 83° (E) 2,948 9.4 4.1°
Sets 22:51:33 0° 87° (E) 3,868 9.9 3.5°
